Weather History for Roswell, NM

Change the Weather History Date:

Wednesday, February 13, 2013

  Actual Average Record
Temperature  
Mean Temperature 39 °F 45 °F  
Max Temperature 59 °F 60 °F 83 °F (1979)
Min Temperature 19 °F 30 °F -29 °F (1905)
Degree Days  
Heating Degree Days 26 20  
Month to date heating degree days 241 273  
Since 1 July heating degree days 2154 2439  
Cooling Degree Days 0 0  
Month to date cooling degree days 0 0  
Year to date cooling degree days 0 0  
Moisture  
Dew Point 5 °F    
Average Humidity 36    
Maximum Humidity 62    
Minimum Humidity 9    
Precipitation  
Precipitation 0.00 in 0.01 in 0.38 in (1895)
Month to date precipitation T 0.19  
Year to date precipitation 0.41 0.57  
Sea Level Pressure  
Sea Level Pressure 30.01 in    
Wind  
Wind Speed 5 mph (South)    
Max Wind Speed 17 mph    
Max Gust Speed 21 mph    
Visibility 10 miles    
Events      
T = Trace of Precipitation, MM = Missing Value Source: NWS Daily Summary

Daily Weather History Graph

Daily Weather History Graph

Search for Another Location

Airport:

Trip Planner

Search our weather history database for the weather conditions in past years. The results will help you decide how hot, cold, wet, or windy it might be!

Date:

Astronomy

Feb. 13, 2013 Rise Set
Actual Time 6:43 AM MST 5:41 PM MST
Civil Twilight 6:18 AM MST 6:06 PM MST
Nautical Twilight 5:49 AM MST 6:36 PM MST
Astronomical Twilight 5:20 AM MST 7:04 PM MST
Moon 8:28 AM MST (2/13) 9:30 PM MST (2/13)
Length of Visible Light 11h 48m
Length of Day
10h 57m
Waxing Crescent, 14% of the Moon is Illuminated
Feb 13
Waxing Crescent
Feb 17
First Quarter
Feb 25
Full
Mar 4
Last Quarter
Mar 11
New

Hourly Weather History & Observations

Time (MST) Temp. Windchill Dew Point Humidity Pressure Visibility Wind Dir Wind Speed Gust Speed Precip Events Conditions
12:51 AM 30.0 °F 26.5 °F 10.0 °F 43% 30.08 in 10.0 mi Variable 3.5 mph - N/A   Clear
1:51 AM 28.0 °F 21.7 °F 6.1 °F 39% 30.08 in 10.0 mi WSW 5.8 mph - N/A   Clear
2:51 AM 25.0 °F - 5.0 °F 43% 30.07 in 10.0 mi Calm Calm - N/A   Clear
3:51 AM 23.0 °F - 5.0 °F 46% 30.06 in 10.0 mi Calm Calm - N/A   Clear
4:51 AM 21.9 °F 12.5 °F 5.0 °F 48% 30.07 in 10.0 mi SSE 8.1 mph - N/A   Clear
5:51 AM 21.0 °F 16.2 °F 6.1 °F 53% 30.08 in 10.0 mi North 3.5 mph - N/A   Clear
6:51 AM 21.0 °F 14.6 °F 10.0 °F 63% 30.10 in 10.0 mi North 4.6 mph - N/A   Clear
7:51 AM 27.0 °F - 7.0 °F 43% 30.10 in 10.0 mi Calm Calm - N/A   Clear
8:51 AM 32.0 °F - 10.0 °F 40% 30.11 in 10.0 mi Calm Calm - N/A   Clear
9:51 AM 41.0 °F 39.0 °F 12.0 °F 31% 30.10 in 10.0 mi East 3.5 mph - N/A   Clear
10:51 AM 46.0 °F 42.5 °F 8.1 °F 21% 30.06 in 10.0 mi Variable 6.9 mph - N/A   Clear
11:51 AM 51.1 °F - 7.0 °F 17% 30.01 in 10.0 mi South 12.7 mph - N/A   Clear
12:51 PM 53.1 °F - 5.0 °F 14% 29.96 in 10.0 mi South 9.2 mph - N/A   Clear
1:51 PM 55.9 °F - 3.0 °F 12% 29.93 in 10.0 mi South 8.1 mph - N/A   Clear
2:51 PM 57.0 °F - 1.9 °F 11% 29.91 in 10.0 mi South 11.5 mph - N/A   Clear
3:51 PM 59.0 °F - 1.0 °F 10% 29.89 in 10.0 mi South 8.1 mph - N/A   Clear
4:51 PM 57.9 °F - 1.0 °F 10% 29.90 in 10.0 mi South 5.8 mph - N/A   Clear
5:51 PM 51.1 °F - 1.9 °F 13% 29.93 in 10.0 mi South 6.9 mph - N/A   Clear
6:51 PM 46.0 °F 43.9 °F 1.9 °F 16% 29.95 in 10.0 mi South 4.6 mph - N/A   Clear
7:51 PM 48.0 °F - 3.0 °F 16% 29.94 in 10.0 mi Calm Calm - N/A   Clear
8:51 PM 37.9 °F 32.7 °F 6.1 °F 27% 29.97 in 10.0 mi West 6.9 mph - N/A   Clear
9:51 PM 39.0 °F - 7.0 °F 27% 29.96 in 10.0 mi Calm Calm - N/A   Clear
10:51 PM 34.0 °F 31.0 °F 5.0 °F 30% 29.97 in 10.0 mi WSW 3.5 mph - N/A   Clear